This is the latest recevied weather packets stored in our database for station/object K1RTA-1. If no packets are shown the sender has not sent any weather packets the latest 10 day(s).
| Time | Temp. | Humidity | Pressure | Rain* | Wind** | Luminosity | Snow |
|---|---|---|---|---|---|---|---|
| 1777881986 | 9.44° C | 70% | 1012.3 hPa | 0 mm | - | - | - |
| 1777881086 | 9.44° C | 72% | 1012.2 hPa | 0 mm | - | - | - |
| 1777880187 | 9.44° C | 75% | 1012.3 hPa | 0 mm | - | - | - |
| 1777879286 | 9.44° C | 74% | 1012.2 hPa | 0 mm | - | - | - |
| 1777878386 | 8.89° C | 77% | 1012.1 hPa | 0 mm | - | - | - |
| 1777877486 | 8.89° C | 75% | 1012 hPa | 0 mm | - | - | - |
| 1777876586 | 8.89° C | 74% | 1011.8 hPa | 0 mm | - | - | - |
| 1777875687 | 8.89° C | 72% | 1011.8 hPa | 0 mm | - | - | - |
| 1777874787 | 8.89° C | 74% | 1011.9 hPa | 0 mm | - | - | - |
| 1777873887 | 8.89° C | 73% | 1011.9 hPa | 0 mm | - | - | - |
| 1777872987 | 8.89° C | 71% | 1011.9 hPa | 0 mm | - | - | - |
| 1777872086 | 8.89° C | 69% | 1011.9 hPa | 0 mm | - | - | - |
| 1777871188 | 8.89° C | 69% | 1012 hPa | 0 mm | - | - | - |
| 1777870287 | 8.89° C | 72% | 1012 hPa | 0 mm | - | - | - |
| 1777869386 | 8.33° C | 71% | 1011.9 hPa | 0 mm | - | - | - |
| 1777868487 | 8.89° C | 70% | 1011.9 hPa | 0 mm | - | - | - |
| 1777867586 | 8.89° C | 69% | 1011.7 hPa | 0 mm | - | - | - |
| 1777866687 | 8.89° C | 68% | 1011.6 hPa | 0 mm | - | - | - |
| 1777865786 | 8.89° C | 68% | 1011.6 hPa | 0 mm | - | - | - |
| 1777864888 | 8.89° C | 69% | 1011.6 hPa | 0 mm | - | - | - |
| 1777863988 | 8.89° C | 68% | 1011.4 hPa | 0 mm | - | - | - |
| 1777863087 | 8.89° C | 68% | 1011.3 hPa | 0 mm | - | - | - |
| 1777862186 | 8.89° C | 68% | 1011.2 hPa | 0 mm | - | - | - |
| 1777861288 | 8.89° C | 69% | 1011.1 hPa | 0 mm | - | - | - |
| 1777860387 | 8.89° C | 72% | 1011.1 hPa | 0 mm | - | - | - |
* Rain latest hour (hover to see other rain measurements)
** Current wind speed in m/s (hover to see current wind gust speed)